Location: Unspecified
(0.0000°N, 0.0000°E)
Time: 14:56:02
(UTC+00:00)

TEN-KOH - Visible Passes

Search period start: 11 April 2026 00:00
Search period end: 21 April 2026 00:00
Orbit: 552 x 565 km, 98.1° (Epoch: 11 April)

Date Brightness Start Highest point End Pass type
(mag) Time Alt. Az. Time Alt. Az. Time Alt. Az.
11 Apr ? 18:28:37 10° NNW 18:32:15 33° WNW 18:35:53 10° SW visible
12 Apr ? 18:26:56 10° NNW 18:30:37 35° WNW 18:34:19 10° SW visible
13 Apr ? 18:25:14 10° N 18:28:58 38° WNW 18:32:43 10° SSW visible
14 Apr ? 18:23:33 10° N 18:27:19 40° WNW 18:31:07 10° SSW visible
15 Apr ? 18:21:51 10° N 18:25:41 43° WNW 18:29:31 10° SSW visible
16 Apr ? 18:20:11 10° N 18:24:01 46° WNW 18:27:54 10° SSW visible
17 Apr ? 18:18:29 10° N 18:22:22 50° WNW 18:26:16 10° SSW visible
18 Apr ? 18:16:47 10° N 18:20:43 53° W 18:24:37 10° SSW visible
19 Apr ? 18:15:06 10° N 18:19:02 57° WNW 18:22:59 10° SSW visible
